User: anonymous   Login
Location: Unspecified
(0.0000°N, 0.0000°E)
Time: 23:54:36
(UTC+00:00)
Language:

AEHF 2 (USA 235) - Orbit

View from above orbital plane
View from above orbital plane
View from above satellite
View from above satellite

Ground track
Ground track

The orbit is defined by the following mean orbital elements,

1 38254U          26145.58043508 +.00000000 +00000-0 +00000-0 0 00006
2 38254   6.5992  57.6520 0002424 356.9478  21.0582  1.00271393    08
Epoch (UTC): 25 May 2026 13:55:49
Eccentricity: 0.0002424
inclination: 6.5992°
perigee height: 35776 km
apogee height: 35797 km
right ascension of ascending node: 57.6520°
argument of perigee: 356.9478°
revolutions per day: 1.00271393
mean anomaly at epoch: 21.0582°

The dashed part of the orbit path shows where the satellite is in the earth's shadow,  

DLR